MIDVIL-WX Weather Reports


Display with metric or nautical units.
time (UTC)temp
F
wind
direction
speed
MPH
gust
MPH
rain 1hr
in
rain 24hr
in
rain mn
in
humidity
%
barometer
mb
20260509043042 46 141 5.0 0.0 0.00 0.00 0.00 47 979.8
20260509041525 46 142 5.0 0.0 0.00 0.00 0.00 47 979.8
20260509040057 46 152 5.0 0.0 0.00 0.00 0.00 47 979.8
20260509034525 47 166 4.0 0.0 0.00 0.00 0.00 44 980.6
20260509033041 47 170 4.0 0.0 0.00 0.00 0.00 37 981.3
20260509031525 48 163 5.0 0.0 0.00 0.00 0.00 37 981.3
20260509030055 49 162 5.0 0.0 0.00 0.00 0.00 37 981.3
20260509024525 50 166 5.0 0.0 0.00 0.00 0.00 29 981.6
20260509023043 51 178 6.0 0.0 0.00 0.00 0.00 37 981.6
20260509021525 50 183 4.0 0.0 0.00 0.00 0.00 37 981.5
20260509020053 51 199 4.0 0.0 0.00 0.00 0.00 37 981.5
20260509014525 51 208 4.0 0.0 0.00 0.00 0.00 36 981.3
20260509013040 52 232 3.0 0.0 0.00 0.00 0.00 36 981.3
20260509011524 54 242 3.0 0.0 0.00 0.00 0.00 36 981.4
20260509010050 55 266 3.0 0.0 0.00 0.00 0.00 36 981.4
20260509004524 55 273 4.0 0.0 0.00 0.00 0.00 29 981.1
20260509003043 56 262 4.0 0.0 0.00 0.00 0.00 29 982.3
20260509001524 57 270 4.0 0.0 0.00 0.00 0.00 29 982.3
20260509000056 58 265 5.0 0.0 0.00 0.00 0.00 29 982.3
20260508234525 59 267 7.0 0.0 0.00 0.00 0.00 25 981.6
20260508233044 60 266 8.0 0.0 0.00 0.00 0.00 23 982.1
20260508231526 60 267 8.0 0.0 0.00 0.00 0.00 23 982.1
20260508230050 60 273 9.0 0.0 0.00 0.00 0.00 23 982.1
20260508224526 61 274 10.0 0.0 0.00 0.00 0.00 24 982.1
20260508223044 60 274 11.0 0.0 0.00 0.00 0.00 21 983.0
20260508221527 61 274 11.0 0.0 0.00 0.00 0.00 21 983.0
20260508220050 61 272 12.0 0.0 0.00 0.00 0.00 21 983.0
20260508214527 61 269 12.0 0.0 0.00 0.00 0.00 23 983.5
20260508213044 62 264 12.0 0.0 0.00 0.00 0.00 23 982.9
20260508211527 62 257 11.0 0.0 0.00 0.00 0.00 23 982.9
20260508210054 62 256 12.0 0.0 0.00 0.00 0.00 23 982.9
20260508204527 62 254 12.0 0.0 0.00 0.00 0.00 28 983.2
20260508203045 62 250 12.0 0.0 0.00 0.00 0.00 27 982.9
20260508201526 64 250 10.0 0.0 0.00 0.00 0.00 27 982.9
20260508200051 63 245 8.0 0.0 0.00 0.00 0.00 19 982.9
20260508194527 63 242 9.0 0.0 0.00 0.00 0.00 22 983.1
20260508193041 63 246 9.0 0.0 0.00 0.00 0.00 22 983.1
20260508191526 63 262 10.0 0.0 0.00 0.00 0.00 22 983.2
20260508190050 63 258 9.0 0.0 0.00 0.00 0.00 22 983.2
20260508184527 62 253 10.0 0.0 0.00 0.00 0.00 26 983.7
20260508183046 62 243 10.0 0.0 0.00 0.00 0.00 28 983.4
20260508181526 62 244 10.0 0.0 0.00 0.00 0.00 28 983.4
20260508180054 61 245 10.0 0.0 0.00 0.00 0.00 28 983.4
20260508174527 61 243 10.0 0.0 0.00 0.00 0.00 31 984.4
20260508173045 61 243 10.0 0.0 0.00 0.00 0.00 31 984.4
20260508171526 60 242 10.0 0.0 0.00 0.00 0.00 31 984.4
20260508170052 60 249 10.0 0.0 0.00 0.00 0.00 32 984.4
20260508164526 59 250 10.0 0.0 0.00 0.00 0.00 34 984.6
20260508163045 59 246 9.0 0.0 0.00 0.00 0.00 34 984.8
20260508161527 58 242 8.0 0.0 0.00 0.00 0.00 34 984.8
20260508160055 57 236 8.0 0.0 0.00 0.00 0.00 34 984.8
20260508154527 56 229 7.0 0.0 0.00 0.00 0.00 41 985.8
20260508153046 55 208 6.0 0.0 0.00 0.00 0.00 45 984.7
20260508151526 54 201 6.0 0.0 0.00 0.00 0.00 45 984.7
20260508150054 53 201 6.0 0.0 0.00 0.00 0.00 45 984.7
20260508144527 53 195 5.0 0.0 0.00 0.00 0.00 62 984.9
20260508143044 52 198 5.0 0.0 0.00 0.00 0.00 60 985.1
20260508141527 51 191 5.0 0.0 0.00 0.00 0.00 60 985.1
20260508140059 50 188 4.0 0.0 0.00 0.00 0.00 63 984.9
20260508134527 49 189 4.0 0.0 0.00 0.00 0.00 71 984.8
20260508133042 48 189 5.0 0.0 0.00 0.00 0.00 71 984.8
20260508131527 46 189 5.0 0.0 0.00 0.00 0.00 71 984.8
20260508130057 45 187 5.0 0.0 0.00 0.00 0.00 71 984.8
20260508124527 43 180 5.0 0.0 0.00 0.00 0.00 85 984.1
20260508123045 43 188 4.0 0.0 0.00 0.00 0.00 84 984.6
20260508121526 41 180 3.0 0.0 0.00 0.00 0.00 84 984.6
20260508114526 38 156 2.0 0.0 0.00 0.00 0.00 84 984.2
20260508113047 37 148 2.0 0.0 0.00 0.00 0.00 79 984.8
20260508111526 37 132 2.0 0.0 0.00 0.00 0.00 79 984.9
20260508110051 36 135 3.0 0.0 0.00 0.00 0.00 79 984.9
20260508104529 36 138 2.0 0.0 0.00 0.00 0.00 75 983.9
20260508103046 36 127 2.0 0.0 0.00 0.00 0.00 71 984.9
20260508101529 37 114 2.0 0.0 0.00 0.00 0.00 71 985.0
20260508100050 37 114 2.0 0.0 0.00 0.00 0.00 71 985.0
20260508094528 37 117 2.0 0.0 0.00 0.00 0.00 70 984.2
20260508093042 38 114 2.0 0.0 0.00 0.00 0.00 74 985.0
20260508091529 38 135 2.0 0.0 0.00 0.00 0.00 74 985.0
20260508090054 38 139 2.0 0.0 0.00 0.00 0.00 74 985.0
20260508084528 38 156 2.0 0.0 0.00 0.00 0.00 73 984.4
20260508083047 38 188 3.0 0.0 0.00 0.00 0.00 76 984.3
20260508081528 38 176 3.0 0.0 0.00 0.00 0.00 76 984.3
20260508080055 39 165 3.0 0.0 0.00 0.00 0.00 76 984.3
20260508074529 39 166 2.0 0.0 0.00 0.00 0.00 85 985.1
20260508073047 39 185 2.0 0.0 0.00 0.00 0.00 85 985.1
20260508071528 39 198 3.0 0.0 0.00 0.00 0.00 85 985.1
20260508070057 39 200 4.0 0.0 0.00 0.00 0.00 85 985.1
20260508064527 39 199 4.0 0.0 0.00 0.00 0.00 80 984.7
20260508063043 40 193 3.0 0.0 0.00 0.00 0.00 81 985.2
20260508061528 41 198 2.0 0.0 0.00 0.00 0.00 81 985.2
20260508060104 40 212 2.0 0.0 0.00 0.00 0.00 81 985.2
20260508054527 40 212 2.0 0.0 0.00 0.00 0.00 78 985.9
20260508053048 41 196 3.0 0.0 0.00 0.00 0.00 85 985.6
20260508051527 41 187 3.0 0.0 0.00 0.00 0.00 85 985.6
20260508050056 41 184 3.0 0.0 0.00 0.00 0.00 85 985.6
20260508044526 41 203 3.0 0.0 0.00 0.00 0.00 82 985.9